Terminal Aerodrome Forecast
Issued by NWS Louisville, KY

Home | Current Version | Previous Version | Text Only | Print | Product List | Glossary On
Versions: 1 2 3 4 5 6 7 8 9 10 11 12 13 14 15 16 17 18 19 20 21 22 23 24 25 26 27 28
000
FTUS43 KLMK 061200 AAA
TAFBWG
TAF AMD
KBWG 061207Z 0612/0712 VRB03KT 4SM BR SKC
      TEMPO 0612/0614 2SM BR=

USA.gov is the U.S. government's official web portal to all federal, state and local government web resources and services.